Hourly Data Report for June 29, 2021

OTTAWA INTL A
ONTARIO
Current Station Operator: NAVCAN

45°19'00.000" N
75°40'00.000" W
114.90 m
6106001
71628
YOW

Download Data

Hourly Data (June 2021)
Hourly Data Report for June 29, 2021
TIME
LST
Temp Definition
°C
Dew Point Definition
°C
Rel Hum Definition
%
Precip. Amount Definition
mm

Wind Dir Definition
10's deg

Wind Spd Definition
km/h
Visibility Definition
km
Stn Press Definition
kPa
Hmdx Definition


Wind Chill Definition


Weather Definition


00:00 23.1 18.9 77   28 14 24.1 100.61 30   LegendNANA
01:00 22.6 18.8 79   28 15 24.1 100.63 29   Mainly Clear
02:00 21.8 18.6 82   27 15 24.1 100.63 28   LegendNANA
03:00 20.5 18.4 87   26 13 24.1 100.68 27   LegendNANA
04:00 20.1 18.2 89   27 6 24.1 100.69 26   Mostly Cloudy
05:00 19.3 18.2 93   25 7 24.1 100.72     LegendNANA
06:00 20.9 18.7 87   25 9 24.1 100.77 27   LegendNANA
07:00 22.4 19.0 81   25 10 24.1 100.77 29   Mostly Cloudy
08:00 23.7 19.5 77   22 8 24.1 100.76 31   LegendNANA
09:00 24.7 18.7 69   28 9 24.1 100.73 31   LegendNANA
10:00 26.8 18.7 61   25 12 24.1 100.70 33   Mostly Cloudy
11:00 27.3 19.0 60   25 16 24.1 100.69 34   LegendNANA
12:00 23.9 20.7 82   27 17 16.1 100.75 32   Rain Showers
13:00 19.8 18.5 92   28 14 4.8 100.76     Rain, Fog
14:00 20.3 19.0 92   23 7 24.1 100.69 27   LegendNANA
15:00 22.2 18.8 81   29 5 24.1 100.57 29   LegendNANA
16:00 22.7 19.0 79   28 9 24.1 100.55 29   Mostly Cloudy
17:00 23.7 19.3 76   24 5 24.1 100.52 31   LegendNANA
18:00 24.4 19.7 75   25 8 24.1 100.45 32   LegendNANA
19:00 23.4 20.0 81   21 4 24.1 100.45 31   Mostly Cloudy
20:00 22.0 20.1 89   12 3 24.1 100.40 30   LegendNANA
21:00 21.7 19.8 89   17 7 24.1 100.35 29   LegendNANA
22:00 21.4 20.2 93   16 7 16.1 100.31 29   Rain Showers
23:00 21.0 20.0 94   16 6 24.1 100.26 29   Rain Showers

Notes on Data Quality.

Legend

  • E = Estimated
  • M = Missing
  • NA = Not Available*
  • [empty] = Indicates an unobserved value
Date modified: